Theta_e
353 345 342 346 347 353 359 357 351 355 350 349 350 350 350 352 350 348 351 343 343 343 339 338 331 329 328 328 326 328 336 340 340 339 336 333 332 331 328 327 326 326 327 330 330 329 329 327 328
351 349 349 347 352 358 357 354 357 352 351 350 350 352 352 353 353 352 348 348 341 342 341 337 332 329 327 327 326 326 330 335 338 338 334 330 329 328 327 328 328 327 327 329 330 331 332 332 329
352 354 352 350 352 357 357 351 351 352 351 350 351 350 351 353 353 349 350 346 340 341 340 346 332 329 327 326 326 326 327 332 334 332 329 328 328 327 327 325 326 326 327 330 335 337 333 331 329
350 353 352 352 356 354 356 352 353 353 350 350 349 350 351 352 348 347 347 343 339 338 338 339 338 328 328 326 324 325 326 327 328 327 326 326 325 325 325 325 325 325 328 333 334 335 335 338 338
348 351 350 354 355 353 353 350 350 352 351 352 351 351 352 350 350 345 342 343 340 337 336 336 345 331 329 328 325 324 325 325 325 326 330 334 335 333 331 330 329 329 331 332 336 336 338 336 338
348 347 351 349 350 353 351 351 351 349 350 348 351 351 352 351 350 347 340 342 341 340 339 338 343 335 333 330 329 328 328 330 335 338 338 337 337 336 334 336 337 338 338 338 338 339 339 339 339
345 348 345 347 347 354 354 351 349 348 345 344 351 351 351 351 351 348 344 341 341 342 342 342 343 346 338 334 333 333 334 335 339 338 337 337 336 337 337 337 337 337 338 336 336 337 338 338 338
340 341 348 346 347 347 353 351 348 349 347 349 351 350 350 351 351 349 343 341 340 340 339 339 341 342 342 342 342 340 339 338 338 337 337 336 335 336 337 336 336 338 333 333 334 333 332 333 335
336 337 340 342 345 341 351 351 349 352 349 349 350 349 350 351 350 349 345 341 339 338 338 338 337 338 341 347 346 337 337 337 337 337 337 335 336 336 337 337 336 336 332 332 336 336 335 334 333
335 334 338 336 335 338 351 350 353 352 348 350 349 349 351 352 351 350 348 345 341 340 339 338 338 337 337 337 336 337 338 337 337 337 338 335 334 335 335 335 335 336 334 336 336 336 337 334 332
335 333 334 338 335 335 345 353 352 353 353 352 349 348 351 351 350 350 350 349 347 347 342 340 338 339 338 338 337 337 337 337 340 338 336 336 336 340 341 339 340 338 338 336 337 336 337 334 332
335 336 335 335 335 335 339 350 351 350 349 349 346 349 351 351 351 350 350 350 347 347 345 340 339 339 339 342 339 345 339 342 343 343 338 338 338 341 341 340 342 343 341 342 342 336 336 335 337
332 332 335 335 335 335 343 348 349 350 346 349 348 351 351 351 350 350 350 350 348 347 347 345 340 339 340 347 348 342 345 344 344 345 343 343 344 346 345 343 343 342 342 343 343 339 335 337 340
330 330 331 333 335 335 341 345 345 346 347 349 351 350 350 351 351 351 351 351 348 349 348 348 343 344 346 347 349 347 346 346 345 346 346 345 344 344 344 343 345 341 342 344 344 343 336 334 340
330 330 330 331 333 334 341 343 342 345 350 351 351 351 349 349 349 351 350 349 349 349 349 348 348 348 349 349 348 346 346 347 345 346 345 344 345 344 344 343 343 343 342 343 343 345 340 335 340
330 329 331 331 332 333 334 330 342 345 348 351 352 352 350 350 350 349 349 350 349 348 348 347 348 348 348 348 347 346 346 347 346 344 345 344 344 343 343 342 345 346 343 341 341 343 343 343 343
325 330 331 332 332 335 331 331 341 346 347 348 348 351 351 349 349 349 347 348 349 348 348 347 348 348 348 349 347 348 346 347 346 347 347 346 344 345 345 343 343 343 345 345 344 342 342 343 342
328 326 326 328 332 336 338 336 341 344 341 342 344 343 344 349 347 345 348 347 348 349 348 347 348 348 348 348 348 348 347 347 346 348 347 345 344 345 344 341 345 345 346 346 345 345 342 341 342
325 325 325 326 329 335 336 338 336 340 339 338 344 348 347 349 339 340 346 349 348 349 349 348 347 348 348 349 349 348 348 349 348 346 349 347 346 345 347 343 347 346 347 346 346 344 340 342 342
322 323 323 325 331 332 337 336 336 338 338 336 342 349 349 344 341 344 347 347 349 349 348 347 348 347 347 349 349 348 346 346 346 346 347 347 347 345 347 343 344 345 344 346 346 346 343 341 343
322 322 324 326 327 333 335 330 336 338 335 339 339 345 349 347 342 343 344 348 349 350 349 348 348 347 346 348 348 347 347 346 347 345 346 347 346 345 347 346 345 345 347 345 346 345 344 342 345
322 323 325 327 326 326 330 330 334 337 335 336 341 343 345 347 345 342 341 340 348 349 350 349 348 348 348 349 346 348 348 346 345 344 345 345 346 346 347 348 344 341 344 346 344 345 344 343 346
323 324 325 327 324 326 331 331 331 333 339 340 340 340 342 344 344 345 343 343 345 350 350 349 349 347 347 347 346 348 349 348 347 346 344 345 345 347 346 346 347 344 344 340 343 345 346 344 345
324 325 321 321 321 324 324 331 329 340 339 340 338 340 342 343 342 343 343 343 345 349 349 349 348 346 341 347 348 348 348 349 347 346 347 345 344 347 347 347 346 345 346 340 341 345 348 345 344
321 321 322 326 325 327 326 334 332 337 339 339 340 339 343 342 343 342 342 342 345 346 347 348 347 346 344 346 348 349 348 348 347 347 348 345 343 345 348 347 345 345 346 345 341 345 345 342 345
324 321 321 328 326 328 332 338 336 338 338 339 339 340 341 342 343 343 344 342 344 349 346 341 338 342 345 345 347 347 348 346 346 346 346 346 344 343 345 347 347 344 343 344 343 342 344 344 344
324 325 321 321 323 331 335 334 336 337 336 337 337 334 336 337 340 342 344 345 343 343 347 345 338 344 343 341 343 340 346 347 346 346 346 346 345 344 346 346 347 346 345 344 345 345 344 346 346
329 325 329 324 331 334 337 341 337 339 337 337 334 334 334 341 342 344 346 346 345 345 346 344 341 339 339 343 338 336 341 347 346 347 346 345 345 346 347 343 346 347 345 344 345 342 343 347 345
329 329 325 324 323 330 336 338 334 338 336 337 335 335 335 342 344 345 347 346 347 344 343 342 340 341 341 342 339 341 346 348 348 348 348 345 344 346 347 347 347 348 349 348 347 343 344 344 344
330 330 325 325 328 325 330 333 333 335 335 335 335 335 334 336 342 346 347 348 345 344 341 339 339 339 340 343 342 341 343 351 349 349 348 348 345 344 346 347 346 347 348 348 348 344 343 342 343
Wind_Speed
5 3 6 2 4 5 3 2 4 5 3 6 15 4 6 3 2 3 13 27 26 28 28 27 26 26 24 22 20 22 24 24 23 22 20 19 19 17 16 14 12 12 13 13 11 11 11 9 10
1 2 1 3 5 3 1 3 4 3 7 15 10 11 3 1 2 12 31 22 26 27 27 26 25 24 23 23 22 22 22 22 22 21 20 19 17 16 13 10 10 10 11 12 11 9 9 11 7
4 3 2 4 3 3 2 4 1 9 7 3 5 3 2 3 7 32 24 26 26 26 26 25 24 23 22 21 23 22 22 22 21 20 18 17 16 14 11 10 11 11 10 8 9 9 10 8 7
5 5 5 4 2 3 6 5 3 2 4 4 10 4 5 5 24 21 25 28 26 26 25 25 23 23 22 21 23 23 22 21 20 18 17 15 14 13 11 10 11 10 10 8 8 7 8 9 9
5 1 2 1 3 3 4 9 13 6 1 7 5 2 6 17 16 19 26 27 25 25 24 23 22 22 22 21 21 22 21 20 19 17 15 13 12 11 11 10 10 10 10 9 9 9 10 11 12
2 2 2 2 2 3 5 10 1 4 7 6 11 8 7 8 18 23 24 25 23 24 24 23 22 20 20 19 19 19 18 17 16 13 12 10 10 10 9 9 9 9 8 7 7 8 7 9 11
3 1 3 2 1 3 4 10 0 6 9 4 17 4 5 14 19 21 21 24 24 22 22 22 21 20 18 18 17 16 16 15 13 11 10 9 9 9 10 10 9 9 7 6 6 6 7 8 10
6 3 1 2 1 1 11 10 9 5 3 10 8 5 6 22 25 23 23 25 24 22 20 19 20 20 19 18 16 15 14 13 13 11 10 10 9 9 9 9 9 8 8 6 6 7 8 8 9
7 4 2 5 5 2 19 7 11 7 8 5 12 5 11 31 27 27 27 27 26 24 22 20 19 19 18 17 16 14 13 11 11 10 10 10 8 8 9 8 10 10 7 6 5 9 9 8 8
5 4 7 6 4 3 16 7 15 7 10 5 9 6 25 34 31 31 31 30 27 25 22 22 20 18 18 16 15 13 12 10 9 9 10 8 8 7 7 7 8 10 10 7 5 8 8 9 8
4 5 5 2 7 7 14 12 10 11 4 14 20 28 34 38 35 32 31 29 26 21 21 22 21 19 18 17 15 13 12 10 9 9 10 9 8 6 6 7 7 10 10 10 8 9 8 9 9
2 4 8 4 11 4 7 21 10 19 7 13 22 34 38 41 39 37 34 32 27 26 21 22 21 20 19 16 16 11 12 10 8 6 9 10 8 9 7 7 5 3 11 9 9 11 10 11 10
1 3 9 13 16 11 11 7 5 17 10 18 25 37 40 41 39 36 33 30 27 26 23 19 22 22 19 18 16 14 12 8 8 7 7 10 8 7 9 8 7 6 7 9 9 13 14 12 11
6 8 3 8 15 10 8 3 2 10 13 24 28 39 36 40 37 35 34 31 26 24 25 22 22 22 20 18 18 16 12 10 9 7 8 8 9 7 3 8 6 7 7 6 9 10 15 15 13
8 5 8 5 11 7 13 2 6 13 19 23 27 28 30 27 30 35 35 33 29 29 25 25 22 22 22 18 16 16 14 13 12 9 8 10 10 8 6 4 6 6 7 7 8 11 13 16 16
5 4 4 5 6 4 12 6 8 19 23 19 29 25 24 32 37 35 33 36 33 30 27 24 24 23 23 20 18 17 15 14 13 11 10 10 9 9 8 8 7 9 5 5 7 8 12 14 15
6 1 5 7 6 3 3 5 5 15 13 15 20 27 26 30 37 38 33 32 37 34 29 27 26 25 23 22 20 17 17 17 15 13 12 12 11 9 10 11 10 8 8 6 7 7 7 11 14
4 6 6 7 3 2 2 4 4 14 13 9 20 21 33 38 32 34 27 33 37 39 33 29 29 26 23 24 22 21 21 19 17 16 14 13 13 10 8 8 6 7 6 6 2 4 4 7 11
5 4 8 12 5 4 3 2 7 9 11 8 16 22 31 37 15 22 21 28 36 40 39 36 33 29 28 29 28 26 24 22 21 18 17 17 16 14 10 10 9 9 9 7 5 3 4 4 7
6 5 7 6 1 4 3 4 6 4 3 9 10 17 27 34 13 17 23 23 37 40 38 40 36 32 30 30 29 26 19 20 21 19 21 19 18 16 14 14 11 10 10 7 6 5 5 5 7
6 5 3 5 4 5 4 4 5 5 7 7 4 10 16 24 21 16 23 27 35 42 45 39 40 35 31 28 28 26 21 20 22 23 22 20 20 18 17 14 12 12 12 9 8 8 8 7 7
4 5 3 5 3 2 3 3 5 2 5 4 5 5 11 17 26 28 26 29 33 39 45 44 40 39 33 31 28 27 24 25 23 23 24 21 19 21 20 17 14 12 14 12 12 10 8 9 9
8 2 2 3 1 2 2 5 5 4 7 3 2 4 10 13 27 34 23 23 29 41 42 44 42 32 32 30 30 27 26 25 19 20 24 25 22 23 21 19 18 15 13 14 13 10 10 10 11
2 5 6 4 3 4 5 4 4 2 3 6 11 7 2 11 18 29 31 21 21 30 32 36 34 25 28 32 35 30 25 24 19 21 22 25 25 24 23 22 21 19 16 13 15 14 14 11 12
7 7 4 5 5 5 5 3 6 3 5 7 13 11 7 16 10 15 24 15 14 21 24 27 31 35 35 36 31 27 23 22 21 22 22 23 26 28 25 25 21 19 17 14 14 14 13 11 10
2 7 5 3 2 4 4 3 5 5 13 17 20 12 7 13 15 9 10 23 14 18 22 12 14 26 31 16 19 22 26 25 24 24 23 23 25 23 24 25 22 21 20 17 17 15 13 12 12
2 1 3 6 2 2 2 5 8 4 8 13 10 6 4 17 18 17 12 13 22 20 24 15 11 13 20 18 14 20 25 25 24 23 22 23 23 21 24 25 25 22 23 19 19 16 14 13 11
6 4 4 4 2 1 3 4 6 6 4 9 7 15 16 17 17 14 8 7 14 17 16 12 18 22 20 18 19 25 20 25 23 22 22 20 23 23 24 26 25 21 21 23 20 18 17 16 13
5 3 6 5 4 4 1 6 6 6 8 8 8 10 15 17 18 8 6 6 9 11 12 12 20 24 22 24 23 23 19 21 21 22 23 21 22 24 20 23 25 24 22 22 21 20 18 17 14
2 2 4 5 4 0 3 5 8 8 12 3 7 16 16 22 22 7 3 5 6 11 9 10 16 22 25 28 29 31 26 20 21 22 21 19 22 25 24 23 25 25 24 22 21 22 18 17 16
Wind_Direction
95 129 335 78 57 61 293 5 297 316 111 198 150 145 175 56 196 209 149 158 164 163 164 164 166 167 169 164 159 157 161 160 158 157 154 152 154 154 152 145 144 143 136 132 131 136 133 138 143
25 31 55 94 89 122 282 254 249 123 113 135 146 128 80 109 147 142 149 159 164 164 165 164 163 161 164 164 160 156 159 158 160 160 160 160 164 165 163 170 167 163 154 147 146 147 145 135 140
6 329 41 77 64 131 193 206 193 53 74 124 109 110 131 160 148 148 154 156 162 166 166 163 167 164 161 161 163 163 160 160 161 164 165 169 176 188 201 196 186 182 173 170 163 163 174 178 197
323 358 50 82 124 241 171 146 84 54 66 99 102 67 71 310 145 150 154 159 165 166 169 165 167 166 163 164 166 166 167 168 169 175 176 181 187 190 188 186 188 187 190 197 203 197 198 204 218
262 346 43 118 206 198 269 181 172 125 68 51 127 94 84 125 146 146 154 163 168 167 167 167 169 168 169 165 165 164 164 166 170 172 176 183 191 190 194 192 195 203 214 216 219 222 213 208 215
275 357 33 15 15 136 207 206 64 108 143 103 118 109 138 210 163 151 153 165 172 173 170 169 169 171 172 171 171 168 168 173 176 178 184 185 189 188 194 197 211 217 221 229 222 228 224 215 218
191 196 234 68 32 137 155 192 167 161 165 209 145 91 147 179 172 156 160 168 173 176 173 173 171 176 176 177 179 179 179 184 187 190 193 197 199 199 204 212 214 216 215 212 216 220 228 221 216
199 133 8 47 126 202 145 165 163 171 242 171 164 150 171 176 171 164 166 170 174 175 179 177 174 178 180 181 185 185 186 190 194 198 201 208 213 206 207 208 211 205 206 208 227 226 225 222 223
181 75 187 201 182 146 144 168 146 190 195 142 188 164 195 169 171 169 168 176 178 179 182 180 183 180 183 181 187 185 190 192 199 209 209 214 213 204 205 206 210 212 216 228 250 217 222 222 219
135 115 216 203 192 161 181 151 157 170 172 188 184 197 166 174 180 177 176 178 182 184 187 187 185 183 185 186 190 192 197 203 212 216 219 211 209 207 201 213 224 224 219 225 226 213 207 209 210
181 161 234 234 220 196 162 161 182 151 206 201 184 171 174 181 185 187 187 189 187 186 188 194 191 187 185 187 188 193 196 208 212 215 211 199 202 199 213 215 218 235 228 233 226 214 210 209 206
246 184 181 232 218 221 157 171 180 179 232 220 185 178 179 186 193 193 195 195 190 190 191 195 197 195 191 187 183 193 193 197 183 185 189 194 212 218 212 193 220 265 232 224 226 217 208 211 204
300 268 205 237 207 215 167 185 176 207 213 172 174 178 183 189 197 202 200 199 195 194 186 189 195 196 193 189 184 176 181 188 182 189 189 206 204 221 204 212 244 273 225 215 219 217 211 208 210
278 305 240 231 214 217 187 126 90 198 170 165 171 178 186 189 197 199 206 202 214 204 196 190 187 187 188 190 193 191 187 186 198 210 207 214 210 214 264 249 255 278 224 234 212 217 220 218 218
331 333 328 221 219 224 137 22 249 198 174 167 175 183 187 192 203 210 215 213 215 210 200 198 200 201 198 197 200 191 195 204 209 206 209 217 225 241 252 288 279 286 223 216 231 221 214 215 218
11 45 1 266 134 205 162 241 256 195 177 177 192 186 176 192 203 212 220 220 218 213 210 209 208 211 209 208 199 200 204 208 205 204 210 216 234 248 249 274 297 260 219 195 220 227 226 219 219
12 237 279 313 152 127 125 245 231 176 180 200 207 205 201 199 215 212 213 217 221 218 216 215 213 217 216 214 210 212 212 216 210 217 219 218 228 253 262 262 288 263 239 220 195 210 213 217 222
298 332 302 273 223 57 124 233 103 182 187 208 225 239 221 218 216 222 217 217 218 222 221 220 219 220 225 216 215 217 219 216 220 219 223 229 229 242 266 241 252 227 200 196 172 217 233 224 222
270 260 284 287 242 104 227 48 126 160 193 215 229 211 206 207 225 230 220 228 222 221 224 219 216 218 217 215 214 218 220 220 223 227 223 227 226 230 245 228 233 236 220 206 188 209 219 242 229
243 266 275 277 67 121 168 230 83 77 12 339 255 225 215 209 231 227 221 235 231 225 219 221 220 219 215 216 219 226 232 235 235 239 232 231 229 230 237 222 225 237 239 247 226 236 248 250 225
269 213 227 240 9 27 125 27 65 17 51 33 312 268 235 228 222 226 232 231 228 227 221 219 220 221 216 218 222 225 228 234 228 227 223 227 226 227 220 221 233 239 247 253 244 254 244 259 248
248 198 205 283 58 275 112 263 112 150 224 261 122 160 228 234 230 219 238 227 230 231 224 218 221 219 218 220 223 224 233 228 226 228 227 228 228 224 223 230 229 241 244 247 258 247 248 232 249
231 101 57 348 136 34 44 89 258 117 230 227 239 168 175 256 224 214 224 235 231 226 223 220 221 215 224 224 226 228 235 238 240 237 232 232 233 226 227 229 230 231 241 243 237 231 232 245 244
62 63 42 57 52 18 311 124 276 283 276 298 287 302 89 104 183 213 223 241 230 222 227 223 238 217 244 232 228 228 236 238 237 239 233 231 233 231 227 230 229 234 240 242 232 227 235 244 248
73 59 352 355 8 229 327 33 245 273 298 249 272 272 102 77 97 202 215 227 215 221 232 229 235 238 228 218 224 231 240 244 247 243 240 233 231 230 227 231 232 228 227 239 229 228 238 240 259
127 138 148 230 237 271 334 329 262 229 283 274 271 268 134 69 36 3 256 234 215 213 210 216 269 216 208 216 221 238 238 238 248 246 237 234 235 239 230 229 237 234 236 241 243 240 242 251 262
135 53 181 106 360 51 262 283 295 231 285 279 280 289 115 35 6 340 327 250 239 240 244 245 230 197 201 219 252 251 232 232 241 243 239 238 235 230 227 232 234 237 240 238 240 243 248 254 260
112 149 55 15 124 259 302 275 241 258 230 276 274 6 7 360 356 346 339 273 239 245 259 247 240 227 223 225 229 243 248 235 242 242 240 241 233 226 244 224 226 231 235 234 243 248 248 250 255
7 17 65 112 107 157 226 267 229 208 194 234 259 346 340 345 354 0 339 302 238 241 244 274 253 238 235 225 216 242 239 241 243 242 243 240 234 226 230 220 226 228 232 237 243 248 243 252 253
158 79 108 112 275 12 156 270 326 166 194 265 325 317 314 329 340 342 334 255 246 232 236 228 241 233 227 231 235 248 262 250 240 243 244 241 237 229 233 230 230 229 232 236 245 249 245 247 246